Время (UTC), дата Ветер
(°,м/с) 
Видим.   Явления Облачность Т
(°С)
Тd
(°С)
f(%) Тe
(°С)
Pmin
(гПа)
dP
(гПа)
Po
(мм)
O2
(г/м3)
Тmin Tmax R s Состояние
почвы
00 01.01.12 080 (В) 0100 м  туман  ?/?  
-0.4 -0.4 100 -3  1015.3  -0.3  754  304           
03 01.01.12 080 (В) 0100 м  туман [диам. гололёда 1 мм]  ?/?  
-0.9 -0.9 100 -3  1014.7  -0.6  754  305           
06 01.01.12 080 (В) 0100 м  туман [диам. гололёда 1 мм]  ?/?  
-1 -1 100 -4  1014.9  0.2  754  305  -1.2         
09 01.01.12 080 (В) 0900 м  туман  ?/?  
-0.2 -0.2 100 -2  1013.6  -1.3  753  304           
12 01.01.12 090 (В) 3000 м  дымка{туман} [диам. гололёда 0 мм]  10/8 120 м средняя 
[St|Ac und]
+0.6 +0.4 99 -2  1011.7  -1.7  752  302           
15 01.01.12 090 (В) 2500 м  дымка{туман}  10/10 60 м 
[St]
+1.4 +1.2 99 -1  1011.1  -0.6  751  301           
18 01.01.12 110 (В) 1200 м  слаб. ливневой дождь  10/8 120 м кучево-дожд., средняя 
[Cb calv|As op]
+1.9 +1.7 99 1010.3  -0.8  751  300    +1.4       
21 01.01.12 270 (З) 2500 м  слаб. ливневой дождь со снегом  10/8 150 м кучево-дожд., средняя 
[Cb calv|As op]
+0.7 +0.5 99 -2  1010.2  -0.1  751  302           
00 02.01.12 300 (СЗ) 10 км  слаб. снег{ливн. осадки}  10/8 240 м средняя 
[Sc diur, vesp|Ac und]
+0.6 -0.8 90 -2  1012.5  2.3  752  303           
03 02.01.12 290 (З) 10 км  {ливн. осадки, снег}  10/8 480 м средняя 
[Sc diur, vesp|Ac und]
-0.1 -1.8 88 -3  1014.5  1.9  754  304           
06 02.01.12 260 (З) 4000 м  слаб. снег{ливн. осадки}  10/8 300 м средняя 
[Frnb|As op]
-0.4 -1.2 94 -3  1016.7  2.2  755  305  -0.6       
09 02.01.12 270 (З) 10 км  {снег}  10/8 400 м средняя 
[Sc|Ac und]
+0.6 -1.4 86 -3  1017.7  756  304           
12 02.01.12 290 (З) 10 км  {ливн. осадки, снег}  9/9 500 м 
[Sc]
-0.2 -3 81 -4  1019.1  1.5  757  306           
15 02.01.12 270 (З) 10 км    10/10 420 м 
[Sc]
-1.6 -4.2 83 -5  1020.5  1.3  758  308           
18 02.01.12 280 (З) 10 км    10/10 700 м 
[Sc]
-1.7 -5.9 73 -5  1020.7  0.2  758  308    +1  0.0     
21 02.01.12 280 (З) 10 км    10/10 750 м 
[Sc]
-2.7 -8.1 66 -7  1020.8  0.1  758  310           
00 03.01.12 290 (З) 10 км    8/4 600 м средняя 
[Sc|Ac trans]
-3.1 -6.7 76 -7  1021.2  0.3  759  310           
03 03.01.12 300 (СЗ) 10 км    9/3 600 м средняя 
[Sc|Ac trans]
-3.5 -6.5 80 -6  1021.6  0.4  759  311           
06 03.01.12 330 (СЗ) 10 км    4/4 600 м 
[Sc]
-4.2 -6.7 83 -7  1023.5  1.9  760  312  -4.2         
09 03.01.12 310 (СЗ) 10 км    3/0 средняя 
[Ac trans]
+0 -4.6 71 -2  1023.9  0.5  761  307           
12 03.01.12 270 (З) 10 км    5/5 800 м 
[Sc]
+1.5 -4.5 64 1024.3  0.5  761  306           
15 03.01.12 230 (ЮЗ) 10 км    8/0 средняя, верхняя 
[Ac trans|Ci fib]
-1.3 -4.9 77 -2  1024.5  0.1  761  309           
18 03.01.12 220 (ЮЗ) 1100 м  ливневой снег  10/8 120 м кучево-дожд., средняя 
[Cb calv|As op]
-1.2 -2.1 94 -3  1024.3  -0.2  761  308    +1.5       
21 03.01.12 150 (ЮВ) 2500 м  слаб. дождь{ливн. осадки, снег} [диам. гололёда 1 мм]  10/8 480 м средняя 
[Frnb|As op]
+0.4 -0.3 95 +1  1021.9  -2.3  759  306           
00 04.01.12 230 (ЮЗ) 4000 м  дымка{ливн. осадки, снег} [диам. гололёда 0 мм]  10/10 330 м 
[Sc]
+2.4 +1.6 94 +1  1019.6  -2.2  758  302           
03 04.01.12 250 (З) 3000 м  слаб. ливневой дождь  10/8 180 м кучево-дожд., средняя 
[Cb calv|As op]
+4.3 +3.2 93 +1  1017.6  -2  756  300           
06 04.01.12 270 (З) 2000 м  дымка{ливн. осадки, дождь}  10/10 120 м 
[St]
+2.9 +2.2 95 1019  1.3  757  302  -1.8       
09 04.01.12 310 (СЗ) 4000 м  дымка  10/8 240 м средняя 
[Sc|Ac und]
+3.1 +1.4 89 +1  1019.7  0.7  758  302           
12 04.01.12 300 (СЗ) 4000 м  дымка  10/10 270 м 
[St]
+2.2 +0.6 89 +1  1020.2  0.4  758  303           
15 04.01.12 250 (З) 3500 м  дымка  10/10 240 м 
[St]
+1.9 +0.4 90 1021.3  1.1  759  304           
18 04.01.12 220 (ЮЗ) 4000 м  дымка  10/10 210 м 
[St]
+1.5 +0.3 92 1021.5  0.2  759  304    +4.3     
21 04.01.12 160 (Ю) 1200 м  слаб. морось  10/10 120 м 
[St]
+1.1 +0.5 96 1020.6  -0.9  758  304           
00 05.01.12 130 (ЮВ) 0100 м  туман{морось}  ?/?  
+1.3 +1.3 100 1019.6  -1  758  304           
03 05.01.12 190 (Ю) 1200 м  дымка{туман}  10/10 600 м 
[St]
+2.7 +2.4 98 +1  1017.6  -1.9  756  301           
06 05.01.12 190 (Ю) 4000 м  дымка{туман}  9/3 200 м средняя 
[St|Ac trans]
+2.7 +2.4 98 +1  1017.2  -0.4  756  301  +1    0.0     
09 05.01.12 190 (Ю) 10 км    8/0 средняя, верхняя 
[Ac trans|Ci fib]
+7.3 +3.1 75 +5  1015.2  -1.8  755  296           
12 05.01.12 190 (Ю) 10 км    8/0 средняя, верхняя 
[Ac trans|Ci fib]
+8.7 +2.8 66 +7  1012.8  -2.4  753  294           
15 05.01.12 150 (ЮВ) 10 км    8/0 средняя, верхняя 
[Ac trans|Ci]
+5.4 +1.9 78 +5  1011.7  -1.2  752  297           
18 05.01.12 160 (Ю) 10 км    8/0 верхняя 
[Ci fib]
+5.2 +2.2 81 +4  1010.6  -1.1  751  297    +9.1       
21 05.01.12 160 (Ю) 10 км    9/0 средняя, верхняя 
[Ac trans|Ci fib]
+4.7 +2.1 83 +4  1009.3  -1.3  750  297           
00 06.01.12 тихо ()   10 км    4/0 верхняя 
[Ci fib]
+0.7 +0.1 96 +1  1009  -0.4  750  301           
03 06.01.12 100 (В) 4000 м  дымка  6/0 верхняя 
[Ci fib]
+0 -0.7 95 -2  1008.2  -0.8  749  302           
06 06.01.12 090 (В) 0200 м  туман  ?/?  
-0.4 -0.4 100 -3  1009.1  0.9  750  303  -0.9         
09 06.01.12 090 (В) 0700 м  туман [диам. изморози 0 мм]  ?/?  
+1 +1 100 -2  1009  -0.2  750  301           
12 06.01.12 100 (В) 4000 м  дымка{туман} [диам. изморози 0 мм]  10/10 120 м 
[St]
+2.4 +1.8 96 1008.8  -0.1  750  299           
15 06.01.12 100 (В) 4000 м  дымка  10/10 150 м 
[St]
+2.4 +1.5 94 1010  1.1  751  300           
18 06.01.12 110 (В) 4000 м  дымка  10/10 180 м 
[St]
+1.9 +1.2 95 -1  1010.4  0.4  751  300    +2.9       
21 06.01.12 100 (В) 4000 м  дымка  3/3 200 м 
[St]
+0.2 -0.2 97 -2  1011.2  0.7  751  303           
00 07.01.12 100 (В) 1100 м  дымка  10/10 100 м 
[St]
+1.1 +0.7 97 -2  1011.8  0.6  752  302           
03 07.01.12 090 (В) 2000 м  дымка{туман}  10/10 100 м 
[St]
+1.1 +0.8 98 -2  1012.2  0.3  752  302           
06 07.01.12 100 (В) 3000 м  дымка{туман}  10/10 100 м 
[St]
+1.3 +0.9 97 -3  1013.5  1.3  753  302  +0         
09 07.01.12 110 (В) 10 км    9/6 180 м средняя 
[St|Ac trans]
+3.3 +1.9 90 1013.9  0.4  753  300           
12 07.01.12 100 (В) 10  10 км    9/4 300 м средняя, верхняя 
[St|Ac trans|Ci fib]
+3.8 +1.8 87 1013  -0.8  753  299           
15 07.01.12 100 (В) 10  10 км    9/5 210 м средняя 
[St|Ac trans]
+2.6 +1.3 91 -2  1014.2  1.1  754  301           
18 07.01.12 100 (В) 10 км    9/3 200 м средняя, верхняя 
[St|Ac trans|Ci fib]
+2.7 +1.5 92 -1  1015  0.8  754  301    +4.4       
21 07.01.12 100 (В) 10 км    10/4 300 м средняя 
[Sc|As op]
+2.8 +1.4 90 -1  1013.9  -1.1  753  300           
00 08.01.12 110 (В) 10 км    10/10 360 м 
[Sc]
+2.9 +1.3 89 1014.8  0.9  754  300           
03 08.01.12 090 (В) 10  10 км  в посл. час ливневой дождь  10/8 150 м кучево-дожд., средняя 
[Cb calv|As op]
+2.3 +1.4 94 -2  1012.5  -2.3  752  300           
06 08.01.12 110 (В) 11-15  4000 м  дымка{ливн. осадки, дождь}  10/8 150 м средняя 
[St|As op]
+1.8 +1.1 95 -3  1012.6  0.1  752  301  +1.8    0.0     
09 08.01.12 110 (В) 11-15{15}  4000 м  дымка  10/10 180 м 
[St]
+2.3 +1.2 92 -2  1012.3  -0.3  752  300           
12 08.01.12 110 (В) 7{15}  10 км  слаб. дождь  10/8 330 м средняя 
[Sc|As op]
+3 +1.3 89 1012.4  0.2  752  300           
15 08.01.12 090 (В) 4000 м  слаб. дождь  10/8 210 м средняя 
[Frnb|As op]
+2.1 +1.3 95 -2  1012  -0.4  752  300           
18 08.01.12 110 (В) 8{15}  4000 м  дымка{дождь}  10/8 180 м средняя 
[Frnb|As op]
+2.4 +1.4 93 -1  1012.6  0.6  752  300    +3  0.0     
21 08.01.12 100 (В) 4000 м  в посл. час дождь  10/8 180 м средняя 
[Sc|Ac und]
+2.7 +1.8 94 1013  0.4  753  300           
00 09.01.12 100 (В) 4000 м  дымка{дождь, туман}  10/10 120 м 
[St]
+3 +2.4 96 +1  1012.9  -0.1  753  300           
03 09.01.12 090 (В) 1500 м  дымка  10/10 100 м 
[St]
+2 +1.5 97 -1  1012.4  -0.5  752  301           
06 09.01.12 110 (В) 0800 м  туман  ?/?  
+1.3 +0.8 96 -3  1012.7  0.3  753  302  +1.3    0.0     
09 09.01.12 090 (В) 0300 м  туман  ?/?  
+1.2 +1.2 100 -2  1012.4  -0.3  752  302           
12 09.01.12 110 (В) 4000 м  слаб. ливневой дождь{туман}  10/8 120 м кучево-дожд., средняя 
[Cb calv|Ac und]
+1.3 +0.6 95 -1  1012.4  0.1  752  302           
15 09.01.12 090 (В) 4000 м  слаб. ливневой дождь  10/8 100 м кучево-дожд., средняя 
[Cb calv|Ac und]
+1 +0.5 96 -3  1012.1  -0.3  752  302           
18 09.01.12 100 (В) 1500 м  слаб. ливневой дождь{туман}  10/8 100 м кучево-дожд., средняя 
[Cb calv|Ac und]
+0.1 -0.2 98 -3  1013.2  753  303    +1.5  0.3     
21 09.01.12 090 (В) 0900 м  слаб. ливневой дождь{туман} [диам. гололёда 1 мм]  ?/?  
-0.5 -0.5 100 -4  1013.8  0.6  753  304           
00 10.01.12 080 (В) 2000 м  слаб. ливневой дождь{туман} [диам. гололёда 1 мм]  10/8 100 м кучево-дожд., средняя 
[Cb calv|Ac und]
-0.5 -0.6 99 -3  1014.3  0.5  754  304           
03 10.01.12 090 (В) 0400 м  туман{ливн. осадки} [диам. гололёда 2 мм]  ?/?  
-0.6 -0.8 98 -3  1014.4  0.1  754  304           
06 10.01.12 090 (В) 0900 м  слаб. переохл. морось (гололёд){ливн. осадки, дождь} [диам. гололёда 3 мм]  ?/?  
-0.5 -0.5 100 -4  1015.6  1.2  755  305  -0.7    0.6     
09 10.01.12 100 (В) 0500 м  слаб. морось{ливн. осадки} [диам. гололёда 2 мм]  ?/?  
+0.1 +0.1 100 -2  1015.8  0.2  755  304           
12 10.01.12 090 (В) 0900 м  слаб. дождь{ливн. осадки} [диам. гололёда 0 мм]  ?/?  
+1.4 +1.4 100 +1  1016.1  0.4  755  302           
15 10.01.12 110 (В) 0400 м  слаб. дождь{туман}  ?/?  
+1.4 +1.4 100 +1  1017.6  1.4  756  303           
18 10.01.12 тихо ()   0600 м  слаб. дождь{туман}  ?/?  
+2.3 +2.3 100 +2  1018.1  0.7  757  302    +2.4     
21 10.01.12 230 (ЮЗ) 0300 м  слаб. морось{дождь}  ?/?  
+3.2 +3.2 100 +3  1018.3  0.2  757  301           
00 11.01.12 220 (ЮЗ) 1100 м  дымка{дождь, морось}  10/10 120 м 
[St]
+3.7 +3.3 97 +2  1018.5  0.2  757  300           
03 11.01.12 220 (ЮЗ) 0200 м  слаб. морось{туман}  ?/?  
+3.5 +3.5 100 +2  1018.5  757  301           
06 11.01.12 220 (ЮЗ) 0300 м  слаб. морось{туман}  ?/?  
+3.4 +3.4 100 +2  1019.3  0.8  758  301  +1.4       
09 11.01.12 220 (ЮЗ) 2500 м  дымка{морось, туман}  10/10 100 м 
[St]
+3.3 +3 98 +3  1019.2  -0.1  757  301           
12 11.01.12 210 (ЮЗ) 4000 м  дымка{морось, туман}  10/10 180 м 
[St]
+3.3 +3 98 +4  1018.8  -0.4  757  301           
15 11.01.12 010 (С) 0500 м  морось{туман}  ?/?  
+2.6 +2.6 100 +1  1019.4  0.6  758  302           
18 11.01.12 360 (С) 0400 м  слаб. морось{туман}  ?/?  
+1.5 +1.5 100 1019.4  -0.1  758  303    +3.6  0.0     
21 11.01.12 010 (С) 1500 м  в посл. час дождь со снегом{морось}  10/8 100 м средняя 
[St|As op]
+0.8 +0.5 98 1019.1  -0.3  757  304           
00 12.01.12 330 (СЗ) 3000 м  слаб. снег{дождь}  10/8 120 м средняя 
[Frnb|As op]
+0.6 +0 96 1019.1  757  304           
03 12.01.12 350 (С) 4000 м  дымка{снег}  10/5 630 м средняя 
[Sc|Ac und]
+0.6 -0.4 93 +1  1018.8  -0.3  757  304           
06 12.01.12 310 (СЗ) 4000 м  дымка{снег}  10/4 600 м средняя 
[Sc|Ac und]
+0.9 -0.5 90 +2  1019.4  0.6  758  304  +0.3    0.7     
09 12.01.12 230 (ЮЗ) 4000 м  дымка  10/5 750 м средняя 
[Sc|Ac und]
+1.8 +0.6 92 +1  1019.1  -0.3  757  303           
12 12.01.12 220 (ЮЗ) 4000 м  слаб. дождь  10/8 210 м средняя 
[Sc|Ac und]
+1.7 +0.4 91 1018.8  -0.3  757  303           
15 12.01.12 260 (З) 4000 м  дымка{ливн. осадки, дождь}  10/6 630 м средняя 
[Sc|Ac und]
+0.8 -1 88 1019.2  0.4  757  304           
18 12.01.12 250 (З) 4000 м  дымка{ливн. осадки, дождь}  9/9 450 м 
[Sc]
+0.5 -1.5 86 -2  1019.3  0.1  757  305    +2.2  0.0     
21 12.01.12 260 (З) 10 км    3/0 средняя 
[Ac trans]
-2 -3.8 87 -3  1018.9  -0.5  757  308           
00 13.01.12 230 (ЮЗ) 10 км    9/0 средняя 
[Ac trans]
-1.3 -2.8 90 -3  1018.1  -0.8  756  307           
03 13.01.12 220 (ЮЗ) 10 км    10/6 570 м средняя 
[Sc|Ac und]
-0.8 -2.4 89 -3  1017.4  -0.6  756  306           
06 13.01.12 220 (ЮЗ) 10 км  слаб. снег  10/8 450 м средняя 
[Sc|Ac und]
-0.4 -2 89 -3  1016.8  -0.6  756  305  -2.1         
09 13.01.12 200 (Ю) 3000 м  слаб. снег  10/8 400 м средняя 
[Sc|As op]
-0.5 -1.9 90 -3  1015.5  -1.3  755  305           
12 13.01.12 200 (Ю) 4000 м  дымка{снег, дождь} [диам. гололёда 0 мм]  10/8 500 м кучево-дожд., средняя 
[Cb calv|Ac und]
+1.5 -0.9 84 -1  1013.4  -2  753  302           
15 13.01.12 150 (ЮВ) 4000 м  слаб. дождь{ливн. осадки, снег}  10/6 720 м средняя 
[Sc|Ac und]
+1.3 +0 91 +1  1012.4  -1  752  302           
18 13.01.12 180 (Ю) 10 км  {ливн. осадки, снег}  8/3 300 м средняя 
[Sc|Ac trans]
+2.4 +0.8 89 1011.4  -1  752  300    +1.6     
21 13.01.12 200 (Ю) 10 км    9/5 300 м средняя 
[Sc|Ac trans]
+3.3 +1.6 89 1010.2  -1.1  751  299           
00 14.01.12 200 (Ю) 10 км  {дождь}  9/6 400 м средняя 
[Sc|Ac trans]
+3.2 +1.4 88 +1  1009.3  -0.9  750  299           
03 14.01.12 190 (Ю) 10 км  слаб. дождь  10/6 450 м средняя 
[Sc|Ac und]
+3.1 +1.6 90 +1  1007.9  -1.4  749  298           
06 14.01.12 170 (Ю) 4000 м  слаб. ливневой дождь  10/8 180 м кучево-дожд., средняя 
[Cb calv|As op]
+3 +2 93 1007  -0.9  748  298  +1.3    0.1     
09 14.01.12 180 (Ю) 10 км  слаб. ливневой дождь  10/8 180 м кучево-дожд., средняя 
[Cb calv|As op]
+2.9 +2 94 -1  1005.3  -1.7  747  298           
12 14.01.12 240 (ЮЗ) 10 км  в посл. час дождь{ливн. осадки}  10/8 240 м средняя 
[St|As op]
+2.4 +1.2 92 -1  1005.8  0.4  747  298           
15 14.01.12 250 (З) 10 км    10/5 360 м средняя 
[Sc|Ac und]
+1.4 -0.3 88 -1  1008.5  2.6  749  300           
18 14.01.12 230 (ЮЗ) 4000 м  дымка  10/0 средняя 
[Ac und]
+0 -0.7 95 -2  1009.2  0.7  750  302    +3.7     
21 14.01.12 140 (ЮВ) 3000 м  дымка  10/3 300 м средняя 
[Sc|Ac und]
-0.8 -1.3 96 -2  1009.2  -0.1  750  303           
00 15.01.12 090 (В) 0600 м  слаб. снег{туман}  ?/?  
-0.1 -0.1 100 -3  1007.6  -1.6  749  302           
03 15.01.12 060 (СВ) 0500 м  ливневой снег  ?/?  
-0.3 -0.4 99 -2  1005.9  -1.7  747  302           
06 15.01.12 320 (СЗ) 2000 м  ливневой снег  10/8 120 м кучево-дожд., средняя 
[Cb calv|As op]
-0.5 -0.7 98 -2  1007.3  1.4  749  302  -0.9       
09 15.01.12 250 (З) 10 км  {ливн. осадки}  9/3 200 м кучево-дожд., средняя 
[Cb calv|Ac und]
+0 -1 93 -2  1010.1  2.8  751  303           
12 15.01.12 220 (ЮЗ) 10 км  в посл. час крупа{ливн. осадки, снег}  10/6 330 м кучево-дожд., средняя 
[Cb calv|Ac und]
+0.5 -0.7 92 -1  1011.2  1.1  751  302           
15 15.01.12 220 (ЮЗ) 10 км    8/8 360 м кучево-дожд. 
[Cb calv]
-0.7 -1.5 94 1013.1  1.8  753  304           
18 15.01.12 210 (ЮЗ) 0500 м  туман  6/6 400 м 
[Sc]
-3 -3.2 99 -3  1014  0.8  753  307    +0.6     
21 15.01.12 060 (СВ) 0200 м  туман  ?/?  
-4.6 -4.6 100 -4  1014.8  0.6  754  310           
00 16.01.12 110 (В) 0200 м  переохл. туман [диам. изморози 2 мм]  ?/?  
-6 -6 100 -9  1014.7  754  311           
06 16.01.12 080 (В) 10 км  {туман} [диам. изморози 5 мм]  9/0 средняя, верхняя 
[Ac trans|Ci]
-4.4 -4.9 96 -8  1014.4  0.6  754  309  -7.6         
09 16.01.12 090 (В) 10 км  [диам. изморози 2 мм]  8/0 средняя, верхняя 
[Ac trans|Ci]
-2.1 -3.2 92 -5  1014.5  0.1  754  306           
12 16.01.12 070 (В) 10 км  {снег} [диам. изморози 0 мм]  10/6 330 м средняя 
[Sc|Ac und]
-1 -2.3 91 -4  1013.3  -1.1  753  305           
21 16.01.12 040 (СВ) 4000 м  слаб. снег  10/6 180 м средняя 
[Frnb|As op]
-2.8 -3.8 93 -5  1014.8  0.2  754  307           
00 17.01.12 020 (С) 4000 м  дымка{снег}  10/6 270 м средняя 
[St|As op]
-3.4 -4.3 93 -6  1015.6  0.8  755  308           
03 17.01.12 360 (С) 4000 м  дымка  10/6 240 м средняя 
[St|As op]
-3.4 -4.5 92 -6  1016  0.4  755  309           
06 17.01.12 070 (В) 4000 м  дымка  10/6 400 м средняя 
[Sc|As op]
-3.2 -4.4 91 -4  1017.7  1.7  756  309  -3.4    0.2     
09 17.01.12 110 (В) 4000 м  дымка{снег}  10/5 450 м средняя 
[Sc|Ac und]
-1.7 -3.4 88 -1  1018.3  0.6  757  307           
12 17.01.12 050 (СВ) 4000 м  дымка{снег}  9/4 300 м средняя 
[Sc|Ac trans]
-1.5 -3.3 88 -2  1018.7  0.4  757  307           
15 17.01.12 090 (В) 4000 м  дымка  10/6 210 м средняя 
[Sc|Ac und]
-1.7 -2.6 94 -4  1020.9  2.2  759  308           
18 17.01.12 080 (В) 4000 м  дымка  10/8 180 м средняя 
[Sc|Ac und]
-1.7 -2.6 94 -4  1022.1  1.2  759  308    -0.7  0.0     
21 17.01.12 080 (В) 4000 м  дымка  10/8 210 м средняя 
[Sc|Ac und]
-1.7 -2.7 93 -4  1023.4  1.3  760  309           
00 18.01.12 010 (С) 4000 м  дымка  10/10 150 м 
[St]
-1.6 -2.5 94 -3  1024.6  1.2  761  309           
03 18.01.12 040 (СВ) 2500 м  дымка  10/10 120 м 
[St]
-1.7 -2.3 96 -3  1025.1  0.5  762  309           
06 18.01.12 060 (СВ) 0300 м  туман{снег}  ?/?  
-1.9 -1.9 100 -3  1026.7  1.5  763  310  -2.3         
09 18.01.12 090 (В) 4000 м  слаб. снег{туман}  10/8 240 м средняя 
[Frnb|As op]
-0.9 -2.6 88 -2  1026.4  -0.2  763  309           
12 18.01.12 090 (В) 4000 м  слаб. снег{туман}  10/8 450 м средняя 
[Sc|As op]
-1.4 -2.5 92 -4  1026.4  763  309           
15 18.01.12 100 (В) 4000 м  дымка{снег}  10/10 570 м 
[Sc]
-2 -3 93 -4  1027.5  763  310           
18 18.01.12 080 (В) 4000 м  дымка{снег}  9/9 150 м 
[Sc]
-3 -3.9 93 -7  1027.4  -0.1  763  311    -0.3  0.3     
21 18.01.12 070 (В) 4000 м  дымка  10/10 120 м 
[St]
-4.3 -4.8 96 -8  1027.7  0.2  764  313           
00 19.01.12 070 (В) 0200 м  туман  ?/?  
-5.7 -5.7 100 -9  1027.8  0.1  764  315           
03 19.01.12 070 (В) 0300 м  туман  ?/?  
-6.7 -6.7 100 -10  1027.6  -0.3  763  316           
06 19.01.12 070 (В) 0400 м  слаб. снег{туман} [диам. изморози 6 мм]  ?/?  
-7.2 -7.2 100 -11  1028.7  1.1  764  317  -7.3         
12 19.01.12 070 (В) 3000 м  слаб. снег{туман} [диам. изморози 3 мм]  10/8 210 м средняя 
[Sc|Ac und]
-8.2 -9 94 -11  1028  -0.6  764  318           
15 19.01.12 050 (СВ) 4000 м  {снег} [диам. изморози 2 мм]  8/8 210 м 
[St]
-9.2 -10.1 93 -12  1028.1  764  319           
18 19.01.12 070 (В) 4000 м  дымка{снег} [диам. изморози 2 мм]  10/10 180 м 
[St]
-10.2 -11.2 92 -13  1028  -0.1  764  321    -6.7  0.0     
21 19.01.12 050 (СВ) 3000 м  снежные зёрна [диам. изморози 2 мм]  10/10 100 м 
[St]
-10 -11 92 -13  1027.3  -0.7  763  320           
00 20.01.12 090 (В) 0700 м  в посл. час морось{снег, туман} [диам. изморози 3 мм]  ?/?  
-10.7 -10.7 100 -14  1026.9  -0.4  763  321           
03 20.01.12 040 (СВ) 2000 м  снежные зёрна{туман} [диам. изморози 4 мм]  10/10 120 м 
[St]
-11.8 -12.9 92 -14  1026.8  -0.1  763  322           
06 20.01.12 090 (В) 2500 м  слаб. снег [диам. изморози 4 мм]  6/5 150 м средняя 
[Sc|Ac trans]
-11.9 -13 91 -14  1027.1  0.3  763  323  -12.9    0.2     
09 20.01.12 тихо ()   4000 м  в посл. час снег [диам. изморози 3 мм]  8/4 240 м средняя 
[St|Ac trans]
-9 -10 92 -9  1027.4  0.4  763  319           
12 20.01.12 120 (ЮВ) 4000 м  дымка{снег} [диам. изморози 0 мм]  9/9 210 м 
[Sc]
-8.9 -9.8 93 -12  1026.8  -0.6  763  319           
15 20.01.12 120 (ЮВ) 4000 м  дымка{снег}  10/10 120 м 
[St]
-6.9 -7.6 95 -10  1026.9  0.1  763  316           
18 20.01.12 130 (ЮВ) 2000 м  дымка  10/8 100 м средняя 
[Sc|Ac und]
-6.1 -6.7 95 -9  1026.7  -0.1  763  315    -6.9  0.0     
21 20.01.12 140 (ЮВ) 2000 м  дымка  10/8 60 м средняя 
[Sc|Ac und]
-5.5 -6.1 96 -8  1026.4  -0.3  763  314           
00 21.01.12 110 (В) 1000 м  дымка  10/8 100 м средняя 
[Sc|Ac und]
-6.1 -6.7 95 -9  1026.4  763  315           
03 21.01.12 090 (В) 2000 м  дымка{туман} [диам. изморози 2 мм]  10/10 100 м 
[St]
-8.5 -9.1 95 -12  1026  -0.5  762  318           
06 21.01.12 090 (В) 3000 м  дымка{снег, туман} [диам. изморози 5 мм]  9/4 200 м средняя, верхняя 
[Frnb|Ac trans|Ci fib]
-10.4 -11.4 92 -13  1027  0.9  763  321  -11.3         
09 21.01.12 090 (В) 4000 м  дымка [диам. изморози 7 мм]  8/3 200 м средняя, верхняя 
[St|Ac trans|Ci fib]
-8.5 -9.4 93 -13  1026  -0.9  762  318           
12 21.01.12 100 (В) 3000 м  слаб. снег [диам. изморози 0 мм]  10/6 360 м средняя 
[Sc|Ac und]
-5.1 -6.3 91 -10  1024.4  -1.5  761  313           
15 21.01.12 100 (В) 4000 м  позёмок  10/8 240 м средняя 
[Sc|As op]
-4 -5.1 92 -9  1023.5  -0.8  760  312           
18 21.01.12 090 (В) 4000 м  позёмок{снег}  10/10 210 м 
[Sc]
-6.1 -7.1 93 -12  1022.4  -1.2  760  314    -3.8  0.0     
21 21.01.12 090 (В) 4000 м  позёмок  10/10 240 м 
[Sc]
-7 -8.1 92 -13  1021.5  -0.9  759  315           
00 22.01.12 090 (В) 4000 м  в посл. час снег  10/10 210 м 
[Sc]
-6.8 -7.9 92 -13  1020.8  -0.7  758  314           
03 22.01.12 090 (В) 11-15  4000 м  слаб. снег  10/10 270 м 
[Sc]
-8.4 -9.8 90 -16  1019.3  -1.5  757  316      0.0     
06 22.01.12 090 (В) 10-15{15}  2500 м  слаб. снег  10/10 570 м 
[Sc]
-9.6 -11 89 -17  1020.2  0.8  758  318  -9.7    0.0     
09 22.01.12 090 (В) 12-15{15}  2000 м  метель{снег}  10/8 400 м средняя 
[Sc|Ac und]
-7.3 -8.8 89 -15  1018.5  -1.6  757  314           
12 22.01.12 090 (В) 12-15{16}  2000 м  метель{снег}  10/10 330 м 
[Sc]
-6.8 -8.2 90 -14  1017.3  -1.2  756  313           
15 22.01.12 090 (В) 12-15{15}  2000 м  метель  10/10 300 м 
[Sc]
-6.5 -7.6 92 -14  1017.9  0.6  756  313           
18 22.01.12 100 (В) 12-15{16}  2000 м  метель  10/10 400 м 
[Sc]
-7.8 -8.9 92 -15  1017.9  756  315    -6  0.0     
21 22.01.12 100 (В) 13-16{15}  0700 м  сильная метель  ?/?  
-6.1 -7.1 93 -13  1016.6  -1.2  755  312           
00 23.01.12 100 (В) 11-15{16}  0700 м  сильная метель  ?/?  
-5.5 -6.3 94 -12  1016.7  0.1  755  311           
03 23.01.12 100 (В) 9{15}  0700 м  сильная метель  ?/?  
-5.9 -6.6 95 -12  1017.2  0.5  756  312           
06 23.01.12 100 (В) 0600 м  сильная метель{снег}  ?/?  
-5.9 -6.7 94 -12  1018.4  1.2  757  312  -7.9       
09 23.01.12 090 (В) 10  0800 м  сильная метель{снег}  ?/?  
-5.2 -6 94 -11  1018.6  0.2  757  312           
12 23.01.12 100 (В) 0700 м  сильная метель{снег}  ?/?  
-4.7 -5.5 94 -10  1018.8  0.2  757  311           
15 23.01.12 100 (В) 10  4000 м  слаб. снег  10/8 180 м средняя 
[Sc|As op]
-5 -6 93 -11  1019.5  0.7  757  312           
18 23.01.12 100 (В) 12-15{16}  1200 м  снег  10/10 120 м 
[Sc]
-6.9 -8.1 91 -14  1020.2  0.6  758  314    -4.7     
21 23.01.12 090 (В) 10{16}  4000 м  метель{снег}  10/10 480 м 
[Frnb|Ns]
-9.8 -11.1 90 -17  1021.4  1.1  759  318           
00 24.01.12 080 (В) 9{16}  4000 м  позёмок{снег}  10/10 400 м 
[Sc]
-10.5 -11.8 90 -17  1021.8  0.4  759  319           
03 24.01.12 080 (В) 4000 м  позёмок  10/10 360 м 
[Sc]
-12.6 -14.2 88 -19  1022.6  0.7  760  322           
06 24.01.12 080 (В) 10 км  слаб. снег  10/10 360 м 
[Sc]
-13.6 -15.5 86 -20  1024.3  1.6  761  324  -13.8       
09 24.01.12 090 (В) 4000 м  слаб. снег  10/10 360 м 
[Sc]
-13.1 -15.3 83 -21  1024.9  0.6  761  324           
12 24.01.12 080 (В) 10  10 км  слаб. ливневой снег  9/9 450 м кучево-дожд. 
[Cb calv]
-12.6 -15.3 80 -20  1025.5  0.4  762  323           
15 24.01.12 080 (В) 4000 м  слаб. ливневой снег  10/6 930 м кучево-дожд., средняя 
[Cb calv|Ac und]
-12.5 -15 82 -19  1026.4  0.9  762  323           
18 24.01.12 090 (В) 10 км  позёмок{ливн. осадки}  10/6 930 м средняя 
[Sc|Ac und]
-14.5 -17.1 80 -22  1027.3  0.8  763  326    -12.5  0.3     
21 24.01.12 070 (В) 10 км  позёмок  5/0 средняя 
[Ac trans]
-17.8 -20 83 -25  1028.4  764  331           
00 25.01.12 080 (В) 10 км  позёмок  3/0 средняя 
[Ac trans]
-18.6 -20.5 85 -26  1027.7  -0.7  763  332           
03 25.01.12 050 (СВ) 10 км    3/0 средняя 
[Ac trans]
-20 -22.1 83 -26  1027.6  -0.2  763  333           
06 25.01.12 040 (СВ) 10 км    3/0 верхняя 
[Ci fib]
-18.7 -21.7 77 -25  1027.4  -0.1  763  332  -20.4    0.0     
09 25.01.12 060 (СВ) 10 км    3/0 верхняя 
[Ci fib]
-14.8 -18.4 74 -21  1026.5  -0.8  762  326           
12 25.01.12 050 (СВ) 10 км    5/0 верхняя 
[Ci fib]
-13.4 -17.3 72 -20  1025.6  -0.8  762  324           
15 25.01.12 060 (СВ) 10 км    5/0 верхняя 
[Ci fib]
-14.7 -17.4 80 -22  1026.4  0.7  762  326           
18 25.01.12 080 (В) 10 км    3/0 верхняя 
[Ci fib]
-15.1 -17.3 83 -23  1027.9  1.5  763  327    -13.1       
21 25.01.12 080 (В) 2000 м  слаб. снег  6/6 300 м 
[Sc]
-16.4 -18.1 86 -25  1028.1  0.2  764  329           
00 26.01.12 080 (В) 12-15{15}  1500 м  метель{снег}  3/3 100 м 
[St]
-17.9 -19.7 86 -28  1029  0.8  764  331           
03 26.01.12 080 (В) 12-15{15}  3000 м  метель{снег}  3/3 100 м 
[St]
-19.3 -21.2 85 -30  1029.7  0.6  765  333           
06 26.01.12 080 (В) 10  4000 м  метель  4/1 100 м верхняя 
[St|Ci fib]
-19 -20.9 85 -28  1031.3  1.6  766  333  -19.4    0.0     
09 26.01.12 080 (В) 10  4000 м  метель  4/1 100 м верхняя 
[St|Ci fib]
-15.6 -18 82 -24  1031.5  0.4  766  329           
12 26.01.12 070 (В) 10  4000 м  метель  4/0 верхняя 
[Ci fib]
-13.9 -16.9 78 -22  1031  -0.5  766  327           
15 26.01.12 070 (В) 10-15{15}  4000 м  метель  4/0 верхняя 
[Ci fib]
-14.6 -16.9 82 -23  1032.1  1.1  767  328           
18 26.01.12 070 (В) 9{15}  10 км  позёмок  4/0 верхняя 
[Ci fib]
-15.7 -17.9 83 -24  1032.9  0.7  767  329    -13.6       
21 26.01.12 070 (В) 10 км  позёмок  6/3 300 м средняя, верхняя 
[Sc|Ac trans|Ci fib]
-17.8 -20.1 82 -26  1032.8  -0.1  767  332           
00 27.01.12 060 (СВ) 10 км  позёмок  ясно 
-18.3 -20.6 82 -26  1032.5  -0.4  767  333           
03 27.01.12 060 (СВ) 10 км  позёмок  1/1 300 м 
[Sc]
-17.8 -20.1 82 -26  1032  -0.4  766  332           
06 27.01.12 060 (СВ) 10 км  позёмок  5/5 200 м 
[Sc]
-16.8 -19.2 81 -25  1032.3  0.3  767  331  -18.3         
09 27.01.12 060 (СВ) 4000 м  метель  3/3 200 м 
[St]
-14.5 -17.5 78 -22  1031.8  -0.4  766  328           
12 27.01.12 050 (СВ) 4000 м  позёмок  3/3 300 м 
[Sc]
-13.7 -17 76 -21  1031.2  -0.6  766  326           
15 27.01.12 050 (СВ) 2000 м    ясно 
-14.6 -17.6 78 -15  1032  0.6  766  327           
18 27.01.12 040 (СВ) 2000 м    4/0 средняя 
[Ac trans]
-14.8 -17.1 82 -15  1031.7  -0.3  765  328    -12.9       
21 27.01.12 040 (СВ) 2000 м    3/0 средняя 
[Ac trans]
-13.8 -16 83 -14  1031.3  -0.4  765  326           
00 28.01.12 тихо ()   2000 м    ясно 
-15.2 -17 86 -15  1030.8  -0.5  765  328           
03 28.01.12 360 (С) 10 км    ясно 
-15.5 -17.9 82 -21  1029.7  -1.1  765  328           
06 28.01.12 310 (СЗ) 2000 м    3/0 верхняя 
[Ci fib]
-16 -17.8 86 -16  1029.6  764  328  -16.5      19  равномерный
сухой снег
100% 
09 28.01.12 320 (СЗ) 2000 м  позёмок  3/0 верхняя 
[Ci fib]
-12.3 -17.3 66 -14  1029.2  -0.3  764  324           
12 28.01.12 010 (С) 10 км  в посл. час снег  6/6 450 м 
[Sc]
-10.8 -15.6 68 -16  1028.4  -0.7  764  322           
15 28.01.12 320 (СЗ) 1000 м  снег  10/10 600 м 
[Sc]
-11.8 -14.8 78 -12  1029.4  764  323           
18 28.01.12 010 (С) 2000 м  {снег}  ясно 
-13.7 -15.9 83 -14  1029.1  -0.4  764  325  -9.8    0.0     
21 28.01.12 330 (СЗ) 2000 м    ясно 
-15 -17.4 82 -15  1029.1  -0.1  763  327           
00 29.01.12 330 (СЗ) 10 км    1/1 300 м 
[Sc]
-16.4 -18.2 86 -20  1028.8  -0.3  764  329           
03 29.01.12 тихо ()   10 км  {снег}  6/6 450 м 
[Sc]
-18.5 -20.1 87 -19  1029.1  0.2  764  332           
06 29.01.12 320 (СЗ) 2000 м    3/0 
-18 -20.8 79 -18  1030.2  1.3  764  331  -16.7      19  равномерный
сухой снег
100% 
09 29.01.12 110 (В) 10 км    5/0 средняя, верхняя 
[Ac trans|Ci fib]
-14.2 -16.6 82 -16  1031.5  1.1  766  327           
12 29.01.12 050 (СВ) 10 км    6/0 средняя, верхняя 
[Ac trans|Ci fib]
-13 -16 78 -17  1032.2  0.8  767  326           
15 29.01.12 080 (В) 10 км    6/3 300 м средняя 
[Sc|Ac trans]
-15.2 -17.3 84 -20  1033.5  1.2  768  329           
18 29.01.12 060 (СВ) 10 км    6/0 средняя, верхняя 
[Ac trans|Ci fib]
-17.1 -19 86 -23  1034.1  0.5  768  332    -12.7  0.0     
21 29.01.12 080 (В) 10 км    4/0 средняя, верхняя 
[Ac trans|Ci fib]
-16.2 -18 86 -23  1033.7  -0.4  768  330           
00 30.01.12 070 (В) 10 км    4/0 средняя, верхняя 
[Ac trans|Ci fib]
-16.6 -18.3 87 -24  1033.9  0.2  768  331           
03 30.01.12 080 (В) 10  1500 м  снег  9/9 150 м 
[Sc]
-15.1 -16.7 87 -24  1033.3  -0.5  767  329           
06 30.01.12 070 (В) 4000 м  слаб. снег  10/10 420 м 
[Sc]
-12.9 -14.6 87 -20  1033.6  0.3  768  326  -17.1    0.0     
09 30.01.12 080 (В) 4000 м  метель{снег}  9/4 450 м средняя, верхняя 
[Sc|Ac trans|Ci fib]
-12.4 -15.3 79 -20  1033.5  768  325           
12 30.01.12 060 (СВ) 10 км  позёмок{снег}  6/0 средняя, верхняя 
[Ac trans|Ci fib]
-10.2 -13.7 76 -17  1032.3  -1.1  767  322           
15 30.01.12 060 (СВ) 10 км  позёмок  4/0 средняя, верхняя 
[Ac trans|Ci fib]
-12.2 -15.3 78 -19  1033  0.6  767  325           
18 30.01.12 060 (СВ) 10 км  позёмок  4/0 средняя, верхняя 
[Ac trans|Ci fib]
-13.9 -16.5 81 -22  1033.6  0.5  768  327    -10.2  0.0     
21 30.01.12 070 (В) 10 км  позёмок  3/3 300 м 
[Sc]
-15.8 -18 83 -24  1033.9  0.2  768  330           
00 31.01.12 070 (В) 10 км  позёмок  5/3 300 м средняя 
[Sc|Ac trans]
-18 -20.3 82 -26  1033.4  -0.6  767  333           
03 31.01.12 060 (СВ) 10 км  позёмок  6/5 360 м средняя 
[Sc|Ac trans]
-18.8 -21.3 81 -28  1032.4  -1  767  333           
06 31.01.12 060 (СВ) 10  2000 м  метель{снег}  5/3 300 м средняя 
[Sc|Ac trans]
-19.9 -22.4 81 -30  1032  -0.4  766  335  -20.1         
09 31.01.12 060 (СВ) 4000 м  метель  3/0 средняя, верхняя 
[Ac trans|Ci fib]
-17.9 -20.8 78 -27  1031.2  -0.7  766  332           
12 31.01.12 050 (СВ) 10  4000 м  позёмок  5/0 средняя 
[Ac trans]
-17 -20 77 -26  1029.8  -1.4  765  330           
15 31.01.12 050 (СВ) 10  4000 м  метель  10/0 средняя 
[Ac und]
-18.3 -21.1 79 -28  1029.7  -0.1  765  332           
18 31.01.12 060 (СВ) 12-15{15}  2000 м  метель  10/4 300 м средняя 
[Sc|Ac trans]
-18.6 -20.9 82 -29  1029.3  -0.4  764  332    -16.9  0.0     
21 31.01.12 060 (СВ) 10  0900 м  сильная метель  ?/?  
-19.1 -21.3 83 -29  1028.4  -0.9  764  332           
00 01.02.12 050 (СВ) 9{15}  0900 м  сильная метель{снег}  ?/?  
-19.1 -21.3 83 -28  1027.2  -1.2  763  332           
03 01.02.12 040 (СВ) 1500 м  слаб. снег  10/8 150 м средняя 
[Frnb|As op]
-19.3 -21.6 82 -28  1026.2  -1  762  332           
06 01.02.12 040 (СВ) 1000 м  снег  10/8 120 м средняя 
[Frnb|As op]
-18.9 -21.1 83 -27  1026  -0.2  762  331  -19.4    0.0     
09 01.02.12 050 (СВ) 0900 м  сильн. снег  ?/?  
-17.4 -19.6 83 -25  1026  762  329           
12 01.02.12 040 (СВ) 0900 м  сильн. снег  ?/?  
-16.7 -18.9 83 -24  1026  0.1  762  329           
15 01.02.12 040 (СВ) 4000 м  слаб. снег  9/8 400 м верхняя 
[Sc|Ci fib]
-16.9 -19.1 83 -24  1026.4  0.4  762  329           
Время (UTC), дата Ветер
(°,м/с) 
Видим.   Явления Облачность Т
(°С)
Тd
(°С)
f(%) Тe
(°С)
Pmin
(гПа)
dP
(гПа)
Po
(мм)
O2
(г/м3)
Тmin Tmax R s Состояние
почвы